Regional Weather Roundup
Issued by NWS

Home | Current Version | Previous Version | Graphics & Text | Print | Product List | Glossary On
Versions: 1 2 3 4 5 6 7 8 9 10 11 12 13 14 15 16 17 18 19 20 21 22 23 24 25 26 27 28 29 30 31 32 33 34 35 36 37 38 39 40 41 42 43 44 45 46 47 48 49 50
000
ASUS43 KLMK 241910
RWRKY
KENTUCKY REGIONAL WEATHER ROUNDUP
NATIONAL WEATHER SERVICE LOUISVILLE KY
200 PM EST SAT JAN 24 2015

NOTE "FAIR" INDICATES FEW OR NO CLOUDS BELOW 12,000 FEET
WITH NO SIGNIFICANT WEATHER AND/OR OBSTRUCTIONS TO VISIBILITY.

KYZ001>023-026-027-061>063-070>075-242000-
WESTERN AND SOUTH CENTRAL KENTUCKY

CITY           SKY/WX    TMP DP  RH WIND       PRES   REMARKS
PADUCAH        SUNNY     49  28  44 W10       29.87F
HENDERSON      SUNNY     46  28  49 W10G16    29.84F
OWENSBORO      SUNNY     46  31  56 W9        29.83F
HOPKINSVILLE   SUNNY     46  33  60 SW12      29.86F
BOWLING GREEN  SUNNY     43  33  68 SW17      29.84F
GLASGOW        SUNNY     41  33  72 SW14      29.83F
$$

KYZ024-025-028>034-038-045-046-053-242000-
NORTH CENTRAL KENTUCKY

CITY           SKY/WX    TMP DP  RH WIND       PRES   REMARKS
LOUISVILLE/SDF CLOUDY    40  30  67 SW13      29.78F WCI  32
LOUISVILLE/LOU PTSUNNY   40  30  67 SW10      29.78F WCI  33
FORT KNOX      PTSUNNY   37  30  75 SW13      29.77F WCI  29
$$

KYZ035>037-039>044-047>052-055>060-089>105-242000-
NORTHEAST KENTUCKY

CITY           SKY/WX    TMP DP  RH WIND       PRES   REMARKS
LEXINGTON      SUNNY     33  28  81 SW15      29.75F WCI  23
COVINGTON      CLOUDY    41  26  55 W16       29.69F
FRANKFORT      MOSUNNY   35  28  75 SW15G21   29.75F WCI  25
$$

KYZ054-064>069-076>088-106>120-242000-
SOUTHEAST KENTUCKY

CITY           SKY/WX    TMP DP  RH WIND       PRES   REMARKS
JACKSON        CLOUDY    32  28  85 VRB5      29.77F WCI  27
LONDON         CLOUDY    33  25  72 SW7       29.82F WCI  27
SOMERSET       CLOUDY    32  28  86 SW13      29.85F WCI  22
MIDDLESBORO    SUNNY     38  27  63 SW3       29.83F
MONTICELLO     CLOUDY    37  31  79 S12G20    29.87F WCI  29
$$



USA.gov is the U.S. government's official web portal to all federal, state and local government web resources and services.